SCP
0 0 0 0 0 0 -0 0 -0 0 0 0 0 0 0 0 0 0 0 0 0 0 -0 0 0 0 0 0 0 0 0 0 0 0 0 0 0 0 0 0 0 0 0
0 0 0 0 0 0 0 0 0 0 0 0 0 0 0 -0 0 0 0 0 0 0 0 0 0 0 0 0 0 0 0 0 0 0 0 0 0 0 0 0 0 0 0
0 0 0 0 0 0 0 0 0 0 0 0 0 0 0 0 0 0 0 0 0 0 0 0 0 0 0 0 0 0 0 0 0 0 0 0 0 0 0 0 0 0 0
0 0 0 -0 0 0 0 0 0 0 0 0 0 0 0 0 0 0 0 0 0 0 0 0 0 0 0 0 0 0 0 0 0 0 0 0 0 0 0 0 0 0 0
0 0 0 0 0 0 0 0 0 0 0 0 0 0 0 0 0 0 0 0 0 0 0 0 0 0 0 0 0 0 0 0 0 0 0 0 0 0 0 0 0 0 0
0 0 0 0 0 0 0 0 0 0 0 0 0 0 0 0 0 0 0 0 0 0 0 0 0 0 0 0 0 0 0 0 0 0 0 0 0 0 0 0 0 0 0
0 0 0 0 0 0 0 0 0 0 0 0 0 0 0 0 0 0 0 0 0 0 0 0 0 0 0 0 0 0 0 0 0 0 0 0 0 0 0 0 0 0 0
0 0 0 0 0 0 0 0 0 0 0 0 0 0 0 0 0 0 0 0 0 0 0 0 0 0 0 0 0 0 0 0 0 0 0 0 0 0 0 0 0 0 0
0 0 0 0 0 0 0 0 0 0 0 0 0 0 0 0 0 0 0 0 0 0 0 0 0 0 0 0 0 0 0 0 0 0 0 0 0 0 0 0 0 0 0
0 0 0 0 0 0 0 0 0 0 0 0 0 0 0 0 0 0 0 -0 0 0 0 0 0 0 0 0 0 0 0 0 0 0 0 0 0 0 0 0 0 0 0
0 0 0 0 0 0 0 0 0 0 0 0 0 0 0 0 0 0 0 -0 -0 0 0 -0 -0 -0 0 0 0 0 0 0 0 0 0 0 0 0 0 0 0 0 0
0 0 0 0 0 0 0 0 0 0 0 0 0 0 0 0 0 0 0 0 0 0 0 0 -0 0 0 0 0 0 0 0 0 0 0 0 0 0 0 0 0 0 0
0 0 0 0 0 0 0 0 0 0 0 0 0 0 0 0 0 0 0 0 0 0 0 0 0 0 0 0 0 0 0 0 0 0 0 0 0 0 0 0 0 0 0
-0 0 0 0 0 0 0 0 0 0 0 0 0 0 0 0 0 0 0 0 0 0 0 0 0 0 0 0 0 0 0 0 0 0 0 0 0 0 0 0 0 0 0
0 0 0 0 0 0 0 0 0 -0 0 0 0 0 0 0 0 0 0 0 0 0 0 0 0 0 0 0 0 0 0 0 0 0 0 0 0 0 0 0 0 0 0
0 0 0 0 0 0 0 0 0 0 0 0 0 0 0 0 0 0 0 0 0 0 0 0 0 0 0 0 0 0 0 0 0 0 0 0 0 0 0 0 0 0 0
0 0 0 0 0 -0 -0 0 0 0 0 0 0 0 0 0 0 0 0 0 0 0 0 0 0 0 0 0 0 0 0 0 0 0 0 0 0 0 0 0 0 -0 -0
0 0 0 0 0 0 0 0 0 0 0 0 0 0 0 0 0 0 0 0 0 0 0 0 0 0 0 0 0 -0 0 0 0 0 0 0 0 0 0 0 0 -0 -0
0 0 0 0 0 0 0 0 0 0 0 0 0 0 0 0 0 0 0 0 0 0 0 0 0 0 0 0 0 0 0 0 0 0 0 0 0 0 0 0 0 0 -0
0 0 0 0 0 0 0 0 0 0 0 0 0 0 0 0 0 0 0 0 0 0 0 0 0 0 -0 0 0 0 0 0 0 0 0 0 0 0 0 0 0 0 0
0 0 0 0 0 0 0 0 0 0 0 0 0 0 0 0 0 0 0 0 0 0 0 0 0 0 0 0 0 0 0 0 0 0 0 0 0 0 0 0 0 0 0
0 0 0 0 0 0 0 0 0 0 0 0 0 0 0 0 0 0 0 0 0 0 0 0 0 0 0 0 0 0 0 0 0 0 0 0 0 0 0 0 0 0 0
0 0 0 0 0 0 0 0 0 0 0 0 0 0 0 0 0 0 0 0 0 0 0 0 0 0 0 0 0 0 0 0 0 0 0 0 0 0 0 0 0 0 0
0 0 0 0 0 0 0 0 0 0 0 0 0 0 0 0 0 0 0 0 0 0 0 0 0 0 0 0 0 0 0 0 0 0 0 0 0 0 0 0 0 0 0
-0 0 0 0 0 0 0 0 0 0 0 0 0 0 0 0 0 0 0 0 0 0 0 0 0 0 0 0 0 0 0 0 0 0 0 0 0 0 0 0 0 0 0
0 0 0 0 0 0 0 0 0 0 0 0 0 0 0 0 0 0 0 0 0 0 0 0 0 0 0 0 0 0 0 0 0 0 0 0 0 0 0 -0 0 0 0
Wind_Speed_500mb
20 41 44 22 23 67 50 48 31 23 23 15 16 16 16 15 14 20 22 23 16 14 17 8 3 7 10 13 19 21 24 26 28 27 28 30 34 38 42 43 42 44 45
21 22 20 29 34 47 43 27 13 13 12 19 29 28 27 29 25 18 14 18 20 12 6 3 6 11 14 19 22 25 25 24 25 27 29 31 36 34 41 44 44 43 41
22 21 20 19 19 18 21 22 20 20 38 31 26 33 34 29 24 27 21 18 12 7 2 10 17 18 22 27 28 30 31 29 29 30 31 31 28 30 35 41 40 40 41
26 26 29 28 25 20 28 28 34 34 22 33 32 33 27 28 26 23 16 11 6 5 12 20 24 28 29 29 30 27 25 26 27 31 31 31 32 33 36 39 43 37 38
24 30 32 24 23 39 48 32 40 41 39 36 33 31 30 25 18 11 5 2 8 15 20 22 24 26 26 26 20 21 23 23 25 26 29 31 33 37 39 41 43 39 36
38 38 36 48 56 46 51 47 43 40 39 30 22 18 16 14 9 5 9 14 18 21 22 21 20 18 13 14 20 21 25 25 29 32 33 32 40 43 41 45 44 45 47
40 41 42 41 42 39 35 31 27 35 28 24 20 14 14 13 9 9 15 18 19 19 19 17 7 9 12 13 15 17 20 27 30 32 36 33 34 34 40 47 44 45 47
34 33 29 27 30 23 20 23 27 24 22 22 18 15 13 17 16 20 22 22 21 19 20 12 11 12 12 13 17 19 19 23 26 29 30 27 34 37 38 42 43 45 40
35 35 35 33 32 28 28 24 24 21 20 16 19 20 18 19 20 22 26 29 30 32 30 25 17 15 15 13 18 18 21 21 23 24 29 34 37 37 42 39 36 36 33
29 34 33 27 27 27 25 22 17 13 14 16 19 18 22 25 29 32 36 35 33 31 34 34 23 19 15 14 22 27 32 34 40 40 35 35 34 32 33 32 32 34 39
26 27 27 26 26 24 18 17 15 17 20 16 21 25 25 27 30 33 36 33 28 27 36 40 29 29 31 30 28 29 31 35 38 40 38 34 30 29 33 33 35 40 43
20 23 27 24 21 21 20 18 17 14 15 20 22 22 24 24 26 26 28 29 27 25 33 34 37 32 29 26 25 28 31 39 44 37 33 32 34 35 34 43 45 46 45
17 23 20 18 19 20 21 19 14 16 17 21 19 19 19 17 13 16 21 27 22 19 24 28 30 32 35 31 27 34 43 54 47 38 36 40 45 41 38 40 35 35 39
11 9 13 16 19 19 16 13 10 14 19 18 15 12 13 13 12 12 17 18 17 15 19 17 19 25 31 36 38 41 48 57 45 41 41 37 39 44 40 42 41 37 33
4 3 6 12 14 13 16 13 13 15 15 13 9 5 5 12 17 17 16 14 10 12 15 16 17 22 30 39 45 45 53 52 47 46 41 42 46 49 52 46 40 33 27
9 8 8 10 10 17 17 18 17 13 9 6 6 10 11 19 18 20 11 10 11 14 18 23 17 19 29 41 49 51 55 50 49 45 49 50 52 54 52 48 38 27 22
12 11 12 10 9 12 16 16 13 9 8 6 6 6 11 25 18 11 16 14 13 17 27 22 19 24 37 43 50 53 54 48 45 44 50 60 56 59 57 49 45 40 29
20 17 10 7 6 12 9 12 13 7 5 7 10 12 17 20 18 13 17 19 13 21 25 25 25 30 40 46 49 50 50 41 40 46 49 53 63 61 59 50 45 34 45
15 14 12 9 10 8 5 7 7 5 6 7 9 12 13 16 16 13 14 11 12 13 17 19 23 34 46 47 40 42 46 36 37 41 45 49 54 61 60 52 48 39 41
6 7 6 7 6 7 5 4 2 4 7 8 8 12 20 17 10 9 12 10 15 19 19 20 25 34 51 35 40 37 42 34 34 38 40 40 47 52 57 57 48 37 34
5 5 5 2 7 4 5 9 10 13 16 16 15 13 12 16 11 11 12 15 20 23 23 25 27 27 35 36 36 36 35 28 31 34 42 33 41 54 49 51 50 42 26
4 2 4 6 9 9 9 10 11 14 18 15 15 15 17 20 19 19 20 19 19 25 25 21 22 26 32 32 33 33 31 29 34 37 36 36 36 44 46 44 47 42 37
7 7 8 11 14 15 9 11 14 19 19 17 19 20 21 22 20 21 21 19 20 22 16 16 19 23 23 25 25 28 29 31 34 36 34 34 35 39 36 37 38 42 37
13 13 14 18 14 14 17 19 19 22 21 23 26 24 23 26 25 21 20 18 20 21 18 17 22 22 21 18 22 26 28 26 28 31 31 32 34 29 37 38 30 31 35
16 11 10 9 8 10 16 19 16 21 22 24 29 33 29 24 25 25 22 20 20 20 21 17 21 22 20 22 25 26 28 30 27 29 31 29 32 29 27 30 32 21 26
16 11 10 2 3 5 12 14 12 17 20 22 26 30 32 32 31 29 26 23 21 20 20 21 22 21 21 23 25 27 26 25 29 26 31 30 27 27 26 22 23 28 22
Wind_Direction_500mb
199 198 195 162 323 322 315 298 284 285 247 243 258 259 121 128 148 138 137 129 127 126 128 142 281 279 297 306 294 297 294 293 290 293 287 288 296 301 297 295 290 283 273
115 164 296 321 250 258 264 260 202 184 229 230 136 101 101 106 111 102 111 111 112 122 88 360 308 310 303 300 297 303 300 297 297 292 292 292 296 297 300 304 298 281 269
80 73 67 74 92 145 158 164 160 144 131 113 111 107 109 116 119 115 128 140 151 183 287 324 305 293 282 289 300 303 300 296 296 297 301 304 298 299 300 300 298 295 282
80 78 80 94 108 122 150 140 110 124 117 121 121 122 119 129 135 147 157 170 180 242 275 282 278 280 284 293 298 298 289 289 295 299 301 299 303 304 305 304 299 301 298
92 103 100 91 109 129 117 103 118 117 115 113 116 120 117 129 127 130 149 222 277 291 293 290 288 290 294 292 295 301 299 292 288 286 293 299 302 302 302 303 300 298 301
98 98 102 125 123 117 114 115 113 110 114 117 103 105 122 124 89 20 329 318 313 313 313 312 311 316 300 284 289 288 282 282 284 290 290 298 297 300 300 301 300 298 300
101 106 114 120 119 114 111 107 103 106 103 97 92 86 89 82 53 10 354 347 339 338 336 342 3 2 344 323 313 317 318 306 304 300 298 298 287 298 303 304 301 291 290
110 113 115 118 121 123 125 111 104 96 93 90 85 79 73 69 42 29 25 26 27 27 23 23 352 349 338 328 328 325 322 318 308 304 296 295 295 297 293 302 310 289 291
101 100 104 107 110 110 106 99 88 84 85 86 88 84 70 68 53 39 31 39 48 53 48 36 17 347 326 318 321 330 333 326 320 321 310 298 294 296 296 285 294 300 295
106 107 103 96 96 95 89 87 84 80 89 104 107 97 84 64 50 44 50 56 67 55 37 22 16 19 11 352 342 342 339 334 330 323 314 307 298 288 285 278 284 289 290
119 111 97 90 85 78 71 67 70 78 103 88 92 87 67 55 56 53 49 50 51 40 28 25 29 25 16 11 4 358 351 344 336 323 316 316 310 293 294 294 281 276 278
111 99 90 81 81 70 53 69 81 79 88 101 96 84 66 60 54 51 42 33 28 29 28 31 33 25 10 7 1 356 347 343 340 332 327 325 323 324 316 313 301 277 269
104 105 80 89 82 66 56 63 76 89 86 103 101 92 68 57 54 47 27 11 13 29 28 25 25 25 23 12 2 357 357 356 354 352 345 338 335 337 332 321 309 307 282
122 96 78 67 83 58 49 59 82 99 105 102 101 100 65 44 31 11 3 17 22 40 32 16 7 10 8 10 4 359 360 358 0 355 351 348 342 347 339 333 330 317 293
159 59 99 97 94 67 47 64 99 105 98 80 79 71 33 7 359 348 353 3 358 7 21 3 349 354 359 1 1 2 360 3 3 5 1 356 354 351 352 347 335 327 306
235 233 145 129 107 75 58 74 80 85 94 81 57 46 22 356 339 344 348 355 348 360 2 360 357 353 358 360 2 2 1 5 11 9 7 9 0 2 356 357 7 13 7
120 122 141 148 123 51 82 65 58 65 54 25 352 308 316 344 338 317 347 334 328 3 3 11 1 357 357 357 357 357 359 3 7 11 10 15 12 12 11 13 11 17 21
104 109 110 125 107 102 69 27 16 9 342 301 295 300 307 333 317 317 313 300 312 352 1 360 356 355 355 353 352 353 356 3 14 12 12 12 18 18 19 21 30 44 27
105 82 66 81 91 56 4 357 360 336 298 297 294 309 338 342 332 319 309 302 330 344 353 348 354 357 352 349 352 357 357 7 10 13 17 21 19 21 25 27 30 39 46
81 76 84 76 41 29 350 329 311 80 39 12 9 31 13 357 342 350 343 330 333 330 334 339 351 357 351 353 356 2 359 11 14 16 20 26 19 20 28 29 29 30 35
75 71 43 33 7 25 71 84 46 16 15 6 1 5 6 354 346 331 326 323 319 320 322 325 334 346 345 344 357 6 5 13 19 20 17 18 16 19 21 28 26 30 27
348 116 50 57 61 70 73 49 38 20 14 17 13 352 339 331 327 321 319 319 327 336 323 324 333 342 342 345 358 10 6 13 24 21 20 19 16 16 23 24 25 30 31
95 104 63 85 86 81 71 39 28 27 27 17 359 345 341 345 352 358 355 345 340 335 329 334 327 332 341 348 1 6 5 12 16 15 16 14 17 18 21 20 25 28 42
154 119 92 92 97 74 57 46 41 35 28 28 29 33 39 36 31 24 22 26 25 25 26 5 351 359 11 14 7 7 5 5 11 13 10 6 9 20 24 29 29 37 43
153 146 139 107 97 49 40 40 44 34 36 40 41 43 42 35 34 37 36 34 31 26 22 23 17 19 24 20 11 7 11 8 1 1 1 3 5 9 14 20 28 25 50
179 178 192 160 28 21 23 25 34 32 33 38 42 42 41 41 40 38 36 32 30 28 29 28 23 24 23 19 15 13 15 7 4 8 6 7 3 10 7 22 29 38 31
Wind_Speed_850mb
20 41 44 22 23 67 50 48 31 23 23 15 16 16 16 15 14 20 22 23 16 14 17 8 3 7 10 13 19 21 24 26 28 27 28 30 34 38 42 43 42 44 45
21 22 20 29 34 47 43 27 13 13 12 19 29 28 27 29 25 18 14 18 20 12 6 3 6 11 14 19 22 25 25 24 25 27 29 31 36 34 41 44 44 43 41
22 21 20 19 19 18 21 22 20 20 38 31 26 33 34 29 24 27 21 18 12 7 2 10 17 18 22 27 28 30 31 29 29 30 31 31 28 30 35 41 40 40 41
26 26 29 28 25 20 28 28 34 34 22 33 32 33 27 28 26 23 16 11 6 5 12 20 24 28 29 29 30 27 25 26 27 31 31 31 32 33 36 39 43 37 38
24 30 32 24 23 39 48 32 40 41 39 36 33 31 30 25 18 11 5 2 8 15 20 22 24 26 26 26 20 21 23 23 25 26 29 31 33 37 39 41 43 39 36
38 38 36 48 56 46 51 47 43 40 39 30 22 18 16 14 9 5 9 14 18 21 22 21 20 18 13 14 20 21 25 25 29 32 33 32 40 43 41 45 44 45 47
40 41 42 41 42 39 35 31 27 35 28 24 20 14 14 13 9 9 15 18 19 19 19 17 7 9 12 13 15 17 20 27 30 32 36 33 34 34 40 47 44 45 47
34 33 29 27 30 23 20 23 27 24 22 22 18 15 13 17 16 20 22 22 21 19 20 12 11 12 12 13 17 19 19 23 26 29 30 27 34 37 38 42 43 45 40
35 35 35 33 32 28 28 24 24 21 20 16 19 20 18 19 20 22 26 29 30 32 30 25 17 15 15 13 18 18 21 21 23 24 29 34 37 37 42 39 36 36 33
29 34 33 27 27 27 25 22 17 13 14 16 19 18 22 25 29 32 36 35 33 31 34 34 23 19 15 14 22 27 32 34 40 40 35 35 34 32 33 32 32 34 39
26 27 27 26 26 24 18 17 15 17 20 16 21 25 25 27 30 33 36 33 28 27 36 40 29 29 31 30 28 29 31 35 38 40 38 34 30 29 33 33 35 40 43
20 23 27 24 21 21 20 18 17 14 15 20 22 22 24 24 26 26 28 29 27 25 33 34 37 32 29 26 25 28 31 39 44 37 33 32 34 35 34 43 45 46 45
17 23 20 18 19 20 21 19 14 16 17 21 19 19 19 17 13 16 21 27 22 19 24 28 30 32 35 31 27 34 43 54 47 38 36 40 45 41 38 40 35 35 39
11 9 13 16 19 19 16 13 10 14 19 18 15 12 13 13 12 12 17 18 17 15 19 17 19 25 31 36 38 41 48 57 45 41 41 37 39 44 40 42 41 37 33
4 3 6 12 14 13 16 13 13 15 15 13 9 5 5 12 17 17 16 14 10 12 15 16 17 22 30 39 45 45 53 52 47 46 41 42 46 49 52 46 40 33 27
9 8 8 10 10 17 17 18 17 13 9 6 6 10 11 19 18 20 11 10 11 14 18 23 17 19 29 41 49 51 55 50 49 45 49 50 52 54 52 48 38 27 22
12 11 12 10 9 12 16 16 13 9 8 6 6 6 11 25 18 11 16 14 13 17 27 22 19 24 37 43 50 53 54 48 45 44 50 60 56 59 57 49 45 40 29
20 17 10 7 6 12 9 12 13 7 5 7 10 12 17 20 18 13 17 19 13 21 25 25 25 30 40 46 49 50 50 41 40 46 49 53 63 61 59 50 45 34 45
15 14 12 9 10 8 5 7 7 5 6 7 9 12 13 16 16 13 14 11 12 13 17 19 23 34 46 47 40 42 46 36 37 41 45 49 54 61 60 52 48 39 41
6 7 6 7 6 7 5 4 2 4 7 8 8 12 20 17 10 9 12 10 15 19 19 20 25 34 51 35 40 37 42 34 34 38 40 40 47 52 57 57 48 37 34
5 5 5 2 7 4 5 9 10 13 16 16 15 13 12 16 11 11 12 15 20 23 23 25 27 27 35 36 36 36 35 28 31 34 42 33 41 54 49 51 50 42 26
4 2 4 6 9 9 9 10 11 14 18 15 15 15 17 20 19 19 20 19 19 25 25 21 22 26 32 32 33 33 31 29 34 37 36 36 36 44 46 44 47 42 37
7 7 8 11 14 15 9 11 14 19 19 17 19 20 21 22 20 21 21 19 20 22 16 16 19 23 23 25 25 28 29 31 34 36 34 34 35 39 36 37 38 42 37
13 13 14 18 14 14 17 19 19 22 21 23 26 24 23 26 25 21 20 18 20 21 18 17 22 22 21 18 22 26 28 26 28 31 31 32 34 29 37 38 30 31 35
16 11 10 9 8 10 16 19 16 21 22 24 29 33 29 24 25 25 22 20 20 20 21 17 21 22 20 22 25 26 28 30 27 29 31 29 32 29 27 30 32 21 26
16 11 10 2 3 5 12 14 12 17 20 22 26 30 32 32 31 29 26 23 21 20 20 21 22 21 21 23 25 27 26 25 29 26 31 30 27 27 26 22 23 28 22
Wind_Direction_850mb
199 198 195 162 323 322 315 298 284 285 247 243 258 259 121 128 148 138 137 129 127 126 128 142 281 279 297 306 294 297 294 293 290 293 287 288 296 301 297 295 290 283 273
115 164 296 321 250 258 264 260 202 184 229 230 136 101 101 106 111 102 111 111 112 122 88 360 308 310 303 300 297 303 300 297 297 292 292 292 296 297 300 304 298 281 269
80 73 67 74 92 145 158 164 160 144 131 113 111 107 109 116 119 115 128 140 151 183 287 324 305 293 282 289 300 303 300 296 296 297 301 304 298 299 300 300 298 295 282
80 78 80 94 108 122 150 140 110 124 117 121 121 122 119 129 135 147 157 170 180 242 275 282 278 280 284 293 298 298 289 289 295 299 301 299 303 304 305 304 299 301 298
92 103 100 91 109 129 117 103 118 117 115 113 116 120 117 129 127 130 149 222 277 291 293 290 288 290 294 292 295 301 299 292 288 286 293 299 302 302 302 303 300 298 301
98 98 102 125 123 117 114 115 113 110 114 117 103 105 122 124 89 20 329 318 313 313 313 312 311 316 300 284 289 288 282 282 284 290 290 298 297 300 300 301 300 298 300
101 106 114 120 119 114 111 107 103 106 103 97 92 86 89 82 53 10 354 347 339 338 336 342 3 2 344 323 313 317 318 306 304 300 298 298 287 298 303 304 301 291 290
110 113 115 118 121 123 125 111 104 96 93 90 85 79 73 69 42 29 25 26 27 27 23 23 352 349 338 328 328 325 322 318 308 304 296 295 295 297 293 302 310 289 291
101 100 104 107 110 110 106 99 88 84 85 86 88 84 70 68 53 39 31 39 48 53 48 36 17 347 326 318 321 330 333 326 320 321 310 298 294 296 296 285 294 300 295
106 107 103 96 96 95 89 87 84 80 89 104 107 97 84 64 50 44 50 56 67 55 37 22 16 19 11 352 342 342 339 334 330 323 314 307 298 288 285 278 284 289 290
119 111 97 90 85 78 71 67 70 78 103 88 92 87 67 55 56 53 49 50 51 40 28 25 29 25 16 11 4 358 351 344 336 323 316 316 310 293 294 294 281 276 278
111 99 90 81 81 70 53 69 81 79 88 101 96 84 66 60 54 51 42 33 28 29 28 31 33 25 10 7 1 356 347 343 340 332 327 325 323 324 316 313 301 277 269
104 105 80 89 82 66 56 63 76 89 86 103 101 92 68 57 54 47 27 11 13 29 28 25 25 25 23 12 2 357 357 356 354 352 345 338 335 337 332 321 309 307 282
122 96 78 67 83 58 49 59 82 99 105 102 101 100 65 44 31 11 3 17 22 40 32 16 7 10 8 10 4 359 360 358 0 355 351 348 342 347 339 333 330 317 293
159 59 99 97 94 67 47 64 99 105 98 80 79 71 33 7 359 348 353 3 358 7 21 3 349 354 359 1 1 2 360 3 3 5 1 356 354 351 352 347 335 327 306
235 233 145 129 107 75 58 74 80 85 94 81 57 46 22 356 339 344 348 355 348 360 2 360 357 353 358 360 2 2 1 5 11 9 7 9 0 2 356 357 7 13 7
120 122 141 148 123 51 82 65 58 65 54 25 352 308 316 344 338 317 347 334 328 3 3 11 1 357 357 357 357 357 359 3 7 11 10 15 12 12 11 13 11 17 21
104 109 110 125 107 102 69 27 16 9 342 301 295 300 307 333 317 317 313 300 312 352 1 360 356 355 355 353 352 353 356 3 14 12 12 12 18 18 19 21 30 44 27
105 82 66 81 91 56 4 357 360 336 298 297 294 309 338 342 332 319 309 302 330 344 353 348 354 357 352 349 352 357 357 7 10 13 17 21 19 21 25 27 30 39 46
81 76 84 76 41 29 350 329 311 80 39 12 9 31 13 357 342 350 343 330 333 330 334 339 351 357 351 353 356 2 359 11 14 16 20 26 19 20 28 29 29 30 35
75 71 43 33 7 25 71 84 46 16 15 6 1 5 6 354 346 331 326 323 319 320 322 325 334 346 345 344 357 6 5 13 19 20 17 18 16 19 21 28 26 30 27
348 116 50 57 61 70 73 49 38 20 14 17 13 352 339 331 327 321 319 319 327 336 323 324 333 342 342 345 358 10 6 13 24 21 20 19 16 16 23 24 25 30 31
95 104 63 85 86 81 71 39 28 27 27 17 359 345 341 345 352 358 355 345 340 335 329 334 327 332 341 348 1 6 5 12 16 15 16 14 17 18 21 20 25 28 42
154 119 92 92 97 74 57 46 41 35 28 28 29 33 39 36 31 24 22 26 25 25 26 5 351 359 11 14 7 7 5 5 11 13 10 6 9 20 24 29 29 37 43
153 146 139 107 97 49 40 40 44 34 36 40 41 43 42 35 34 37 36 34 31 26 22 23 17 19 24 20 11 7 11 8 1 1 1 3 5 9 14 20 28 25 50
179 178 192 160 28 21 23 25 34 32 33 38 42 42 41 41 40 38 36 32 30 28 29 28 23 24 23 19 15 13 15 7 4 8 6 7 3 10 7 22 29 38 31